TimeEST,TemperatureF,Dew PointF,Humidity,Sea Level PressureIn,VisibilityMPH,Wind Direction,Wind SpeedMPH,Gust SpeedMPH,PrecipitationIn,Events,Conditions,WindDirDegrees,DateUTC
12:14 AM,33.3,26.1,75,30.17,10.0,SW,10.4,17.3,N/A,,Clear,230,2013-01-08 05:14:00
12:35 AM,32.9,25.7,75,30.17,10.0,SW,12.7,17.3,N/A,,Clear,220,2013-01-08 05:35:00
12:55 AM,32.4,25.7,76,30.18,10.0,SW,11.5,17.3,N/A,,Clear,220,2013-01-08 05:55:00
1:14 AM,32.0,25.7,78,30.17,10.0,SW,11.5,-,N/A,,Clear,220,2013-01-08 06:14:00
1:35 AM,32.0,25.5,77,30.17,10.0,SW,12.7,-,N/A,,Clear,220,2013-01-08 06:35:00
1:54 AM,32.0,25.3,76,30.18,10.0,SW,9.2,-,N/A,,Clear,230,2013-01-08 06:54:00
2:14 AM,31.6,25.3,78,30.18,10.0,SW,8.1,-,N/A,,Clear,220,2013-01-08 07:14:00
2:35 AM,31.5,25.2,78,30.18,10.0,SW,9.2,-,N/A,,Clear,220,2013-01-08 07:35:00
2:54 AM,31.1,25.2,79,30.18,10.0,SW,9.2,-,N/A,,Clear,220,2013-01-08 07:54:00
3:15 AM,31.1,25.0,78,30.19,10.0,SW,9.2,-,N/A,,Clear,220,2013-01-08 08:15:00
3:34 AM,31.1,25.2,79,30.19,10.0,SW,10.4,-,N/A,,Clear,220,2013-01-08 08:34:00
3:54 AM,30.9,24.8,78,30.19,10.0,SW,8.1,-,N/A,,Clear,230,2013-01-08 08:54:00
4:15 AM,30.6,24.8,79,30.19,10.0,SW,8.1,-,N/A,,Clear,230,2013-01-08 09:15:00
4:34 AM,30.2,24.8,80,30.19,10.0,SW,8.1,-,N/A,,Clear,220,2013-01-08 09:34:00
4:55 AM,30.2,24.8,80,30.19,7.0,SW,6.9,-,N/A,,Clear,220,2013-01-08 09:55:00
5:15 AM,29.8,24.6,81,30.19,7.0,SW,9.2,-,N/A,,Clear,220,2013-01-08 10:15:00
5:34 AM,29.7,24.6,81,30.19,7.0,SW,9.2,-,N/A,,Clear,220,2013-01-08 10:34:00
5:55 AM,29.7,24.6,81,30.20,7.0,SW,8.1,-,N/A,,Clear,230,2013-01-08 10:55:00
6:15 AM,29.3,24.4,82,30.20,7.0,SW,6.9,-,N/A,,Clear,230,2013-01-08 11:15:00
6:34 AM,29.1,24.3,82,30.20,7.0,SW,5.8,-,N/A,,Clear,220,2013-01-08 11:34:00
6:55 AM,28.9,23.9,81,30.20,7.0,SW,5.8,-,N/A,,Clear,220,2013-01-08 11:55:00
7:15 AM,28.8,23.9,82,30.21,7.0,SW,6.9,-,N/A,,Clear,220,2013-01-08 12:15:00
7:34 AM,28.8,23.9,82,30.22,7.0,Calm,Calm,-,N/A,,Clear,0,2013-01-08 12:34:00
7:55 AM,28.4,23.9,83,30.22,7.0,SSW,4.6,-,N/A,,Clear,210,2013-01-08 12:55:00
8:14 AM,28.4,23.9,83,30.24,5.0,SW,5.8,-,N/A,,Clear,220,2013-01-08 13:14:00
8:35 AM,28.8,23.9,82,30.24,5.0,SW,4.6,-,N/A,,Haze,220,2013-01-08 13:35:00
8:55 AM,29.1,24.3,82,30.25,5.0,SW,6.9,-,N/A,,Haze,230,2013-01-08 13:55:00
9:14 AM,29.3,24.4,82,30.25,5.0,SW,5.8,-,N/A,,Haze,220,2013-01-08 14:14:00
9:35 AM,29.8,24.6,81,30.26,5.0,SW,6.9,-,N/A,,Haze,230,2013-01-08 14:35:00
9:55 AM,30.2,24.8,80,30.25,5.0,SW,8.1,-,N/A,,Haze,220,2013-01-08 14:55:00
10:14 AM,30.7,24.8,79,30.26,5.0,SW,6.9,-,N/A,,Haze,220,2013-01-08 15:14:00
10:35 AM,31.8,25.2,76,30.26,5.0,SW,6.9,-,N/A,,Haze,220,2013-01-08 15:35:00
10:54 AM,32.0,25.3,76,30.26,5.0,SSW,5.8,-,N/A,,Haze,210,2013-01-08 15:54:00
11:14 AM,33.4,25.7,73,30.26,7.0,SSW,5.8,-,N/A,,Clear,210,2013-01-08 16:14:00
11:35 AM,34.0,25.7,72,30.25,7.0,SW,8.1,-,N/A,,Clear,220,2013-01-08 16:35:00
11:54 AM,34.5,25.9,71,30.25,7.0,SSW,5.8,-,N/A,,Clear,210,2013-01-08 16:54:00
12:15 PM,34.7,26.2,71,30.25,7.0,SSW,6.9,-,N/A,,Clear,200,2013-01-08 17:15:00
12:55 PM,35.8,26.8,70,30.24,7.0,SSW,8.1,-,N/A,,Clear,210,2013-01-08 17:55:00
1:14 PM,36.0,26.6,69,30.23,7.0,SSW,6.9,-,N/A,,Clear,210,2013-01-08 18:14:00
1:54 PM,37.4,27.1,66,30.22,7.0,SSW,6.9,-,N/A,,Clear,210,2013-01-08 18:54:00
2:14 PM,38.5,27.3,64,30.23,7.0,South,8.1,-,N/A,,Clear,190,2013-01-08 19:14:00
2:54 PM,39.7,27.9,63,30.24,7.0,SSW,5.8,-,N/A,,Clear,200,2013-01-08 19:54:00
3:15 PM,40.1,28.0,62,30.23,10.0,South,5.8,-,N/A,,Clear,190,2013-01-08 20:15:00
3:35 PM,40.3,27.9,61,30.23,10.0,SSW,4.6,-,N/A,,Clear,200,2013-01-08 20:35:00
3:54 PM,40.5,28.2,62,30.24,10.0,South,9.2,-,N/A,,Clear,180,2013-01-08 20:54:00
4:15 PM,40.3,28.0,62,30.24,10.0,South,6.9,-,N/A,,Clear,190,2013-01-08 21:15:00
4:35 PM,40.1,28.2,63,30.24,10.0,South,8.1,-,N/A,,Clear,190,2013-01-08 21:35:00
4:54 PM,39.7,28.2,63,30.23,10.0,SSW,6.9,-,N/A,,Clear,200,2013-01-08 21:54:00
5:15 PM,39.0,27.9,64,30.23,10.0,SSW,4.6,-,N/A,,Clear,200,2013-01-08 22:15:00
5:35 PM,37.8,29.5,72,30.24,7.0,South,5.8,-,N/A,,Clear,170,2013-01-08 22:35:00
5:54 PM,37.4,29.8,74,30.24,7.0,South,8.1,-,N/A,,Clear,180,2013-01-08 22:54:00
6:15 PM,36.9,29.3,74,30.24,7.0,South,5.8,-,N/A,,Clear,190,2013-01-08 23:15:00
6:34 PM,36.5,28.9,74,30.24,7.0,South,6.9,-,N/A,,Clear,180,2013-01-08 23:34:00
6:55 PM,36.0,28.8,75,30.24,7.0,South,5.8,-,N/A,,Clear,190,2013-01-08 23:55:00
7:15 PM,35.6,28.8,76,30.24,7.0,SSW,5.8,-,N/A,,Clear,210,2013-01-09 00:15:00
7:35 PM,35.6,28.4,75,30.23,7.0,SSW,5.8,-,N/A,,Clear,210,2013-01-09 00:35:00
7:55 PM,35.1,28.4,77,30.24,7.0,SSW,4.6,-,N/A,,Clear,210,2013-01-09 00:55:00
8:14 PM,34.9,28.4,77,30.24,7.0,South,8.1,-,N/A,,Clear,190,2013-01-09 01:14:00
8:35 PM,35.2,29.1,78,30.24,7.0,South,8.1,-,N/A,,Clear,190,2013-01-09 01:35:00
8:54 PM,35.2,29.1,78,30.23,7.0,South,6.9,-,N/A,,Clear,190,2013-01-09 01:54:00
9:14 PM,35.2,29.1,78,30.22,7.0,South,8.1,-,N/A,,Clear,190,2013-01-09 02:14:00
9:35 PM,35.1,29.3,80,30.21,7.0,South,5.8,-,N/A,,Clear,190,2013-01-09 02:35:00
9:54 PM,35.1,29.3,80,30.20,7.0,SSW,4.6,-,N/A,,Clear,200,2013-01-09 02:54:00
10:15 PM,34.7,29.3,81,30.20,7.0,SSW,5.8,-,N/A,,Clear,210,2013-01-09 03:15:00
10:34 PM,34.3,29.3,82,30.20,7.0,SSW,6.9,-,N/A,,Clear,210,2013-01-09 03:34:00
10:55 PM,34.2,29.3,82,30.20,7.0,SW,4.6,-,N/A,,Clear,220,2013-01-09 03:55:00
11:15 PM,34.5,29.7,82,30.20,7.0,South,3.5,-,N/A,,Clear,190,2013-01-09 04:15:00
11:34 PM,34.2,29.5,83,30.19,7.0,SSW,3.5,-,N/A,,Clear,210,2013-01-09 04:34:00
11:55 PM,33.8,29.3,84,30.19,7.0,SSW,4.6,-,N/A,,Clear,200,2013-01-09 04:55:00